Погода в Богатькове

Россия / Тверская область     56°41′59″N   34°48′37″E
темп.,
°C
ветер,
м/с
пор.,
м/с
влажн.,
%
обл.,
%
осадки,
мм/ч
давл.,
гПа
погр.,
м
7 марта, вс
вс700:00−6юз61382100 0.0 1007910
03:00−5юз71590100 0.6 10021108
06:00−4юз71591100 1.2 9961105
09:00−2юз81684100 2.4 9931359
12:00−4зсз51470100 1.7 9931625
15:00−2зсз5105083 1.7 9932162
18:00−5з4108898 0.8 993863
21:00−7з4118383 1.0 994619
8 марта, пн
пн800:00−9зюз4128836 0.0 993459
03:00−8з5119168 0.3 9941065
06:00−9сз61387100 0.3 996785
09:00−10сз4108896 0.4 1000543
12:00−7ссз4777100 0.1 10031024
15:00−7ссз5778100 0.2 10061063
18:00−9ссз3885100 0.1 1009715
21:00−11ссз3892100 0.2 1012668
9 марта, вт
вт900:00−12ссз3793100 0.1 1014465
03:00−15сз269799 0.1 1016193
06:00−17сз269778 0.0 1017177
09:00−16ссз359173 0.0 1019339
12:00−13ссз248080 0.0 1019532
15:00−11ссз247151 0.0 1020888
18:00−13ссв1285100 0.0 102121
21:00−17св229368 0.0 102322
10 марта, ср
ср1000:00−18всв249697 0.0 1024158
03:00−19в249699 0.0 1025169
06:00−21всв2497100 0.0 1025116
09:00−20в238951 0.0 1027191
12:00−14всв23670 0.0 1028397
15:00−11всв22630 0.0 1028625
18:00−14всв11810 0.0 102820
21:00−17всв12884 0.0 103020
11 марта, чт
чт1100:00−19в119244 0.0 103120
03:00−19юв119341 0.0 103120
06:00−20ю12920 0.0 103120
09:00−17ю23840 0.0 1031141
12:00−12ююв24730 0.0 1030423
15:00−10ююв36710 0.0 1029680
18:00−11ю38820 0.0 1027382
21:00−14ю412830 0.0 1027413